Regional Weather Roundup
Issued by NWS Upton, NY

Current Version | Previous Version | Text Only | Print | Product List | Glossary On
Versions: 1 2 3 4 5 6 7 8 9 10 11 12 13 14 15 16 17 18 19 20 21 22 23 24 25 26 27 28 29 30 31 32 33 34 35 36 37 38 39 40 41 42 43 44 45 46 47 48 49 50
000
ASUS41 KOKX 040518
RWROKX

REGIONAL WEATHER ROUNDUP
NATIONAL WEATHER SERVICE NEW YORK NY
100 AM EDT SAT JUL 04 2015

NOTE: "FAIR" INDICATES FEW OR NO CLOUDS BELOW 12,000 FEET WITH NO
SIGNIFICANT WEATHER AND/OR OBSTRUCTIONS TO VISIBILITY.

NYZ071-072-176-178-NJZ106-104-040600-
NEW YORK CITY METRO AREA


CITY           SKY/WX    TMP DP  RH WIND       PRES   REMARKS
CENTRAL PARK   MOCLDY    71  58  63 CALM      30.01R
LAGUARDIA APRT MOCLDY    71  59  65 S8        29.98R
KENNEDY INTL   CLOUDY    71  59  65 SE7       29.99S
NEWARK/LIBERTY CLOUDY    72  60  66 VRB5      29.98R
BRNX BOT. GARD   N/A     68  59  73 CALM      30.00S
TETERBORO      MOCLDY    72  58  61 S3        29.97R
$$

NYZ177-179-078>081-040600-
LONG ISLAND NEW YORK

CITY           SKY/WX    TMP DP  RH WIND       PRES   REMARKS
FARMINGDALE    MOCLDY    69  60  73 CALM      29.99F
ISLIP          MOCLDY    68  59  73 SE5       29.98S
SHIRLEY        MOCLDY    65  62  90 CALM      30.00F
WESTHAMPTON    MOCLDY    61  59  93 CALM      30.01F
MONTAUK POINT    N/A     68  63  84 VRB5      30.02S
$$

NYZ052-065-067-040600-
HUDSON VALLEY

CITY           SKY/WX    TMP DP  RH WIND       PRES   REMARKS
WHITE PLAINS   MOCLDY    65  60  84 SE3       29.99S
NEWBURGH       MOCLDY    68  59  73 VRB5      29.99S
MONTGOMERY     MOCLDY    60  57  89 MISG      29.98R
POUGHKEEPSIE   PTCLDY    62  56  80 E3        29.97R
ALBANY         CLOUDY    61  51  70 CALM      29.97F
$$

NJZ001-105-106-008-010-013-015-019>022-104-040600-
NEW JERSEY

CITY           SKY/WX    TMP DP  RH WIND       PRES   REMARKS
NEWARK/LIBERTY CLOUDY    72  60  66 VRB5      29.98R
TETERBORO      MOCLDY    72  58  61 S3        29.97R
CALDWELL       MOCLDY    70  60  70 CALM      29.98R
MORRISTOWN     CLOUDY    68  63  83 CALM      29.98R
SOMERVILLE     CLOUDY    69  61  75 CALM      29.96R
SUSSEX         CLOUDY    64  61  90 CALM      29.98R
ANDOVER          N/A     64  62  93 CALM      29.98S
TRENTON        CLOUDY    69  63  81 S6        29.96S
MILLVILLE      CLOUDY    67  66  97 E3        29.96F
ATLANTIC CITY  CLOUDY    71  66  84 SE6       29.96F
WRIGHTSTOWN    CLOUDY    67  64  89 SE3       29.95S
TOMS RIVER     CLOUDY    64  63  94 CALM      29.98S
BELMAR         CLOUDY    68  61  77 SE5       29.98S
$$

PAZ047>061-062-071-040600-
EASTERN PENNSYLVANIA

CITY           SKY/WX    TMP DP  RH WIND       PRES   REMARKS
PHILADELPHIA   CLOUDY    72  64  76 SE3       29.96F
ALLENTOWN      CLOUDY    72  60  66 S5        29.96S
SCRANTON       CLOUDY    68  59  73 SE3       29.97R
$$

CTZ002-004>006-009-010-012-RIZ004-006-007-MAZ004-011-015-040600-
SOUTHERN NEW ENGLAND
 IN CT

CITY           SKY/WX    TMP DP  RH WIND       PRES   REMARKS
BRADLEY INTL   CLOUDY    64  56  75 S3        29.99S
HARTFORD       MOCLDY    65  58  78 CALM      29.99S
DANBURY        MOCLDY    64  55  72 CALM      30.00S
WTRBRY/OXFORD  MOCLDY    63  55  77 CALM      30.01S
BRIDGEPORT     MOCLDY    68  61  78 SE3       29.99S
MERIDEN        MOCLDY    61  57  87 CALM      29.99F
NEW HAVEN      MOCLDY    65  61  87 CALM      30.00R
CHESTER        FAIR      63  61  94 CALM      30.01F
GROTON         MOCLDY    63  60  90 CALM      30.00S
WILLIMANTIC    PTCLDY    61  57  87 CALM      30.01F

 IN RI

CITY           SKY/WX    TMP DP  RH WIND       PRES   REMARKS
PROVIDENCE     MOCLDY    63  58  83 S3        30.01S
BLOCK ISLAND   CLOUDY    64  59  82 S5        30.01S
WESTERLY       MOCLDY    61  59  93 CALM      30.02R

 IN MA

CITY           SKY/WX    TMP DP  RH WIND       PRES   REMARKS
BOSTON         NOT AVBL
WORCESTER      MOCLDY    61  53  75 W7        30.03S
WESTFIELD      MOCLDY    57  53  86 S3        29.99S
PROVINCETOWN   MOCLDY    61   7  11 S9        30.02S
NANTUCKET      MOCLDY    58  56  93 S5        30.01F FOG
$$

ANZ330-335-338-340-345-350-353-355-040600-
COASTAL MARINE OBSERVATIONS


STATION/POSITION TIME  SKY/WX   TEMP    WIND        PRES    VSBY  WAVE
                                AIR SEA DIR/SP/G                  HT/PER
                 (UTC)          (F)     (DEG/KT/KT) (MB)    (MI)  (FT/S)
NY HARB ENTRANCE 0450            70 71  140/ 10/ 12 1014.8          3/ 8
4S FIRE IS       0403               71                N/A           3/ 8
20S FIRE ISLAND  0450            69 68  150/  4/  6 1015.3          3/ 8
GREAT SOUTH BAY  0430            71 75  200/  6/  8   N/A
23SW MTP         0450            68 68  210/  4/  6 1015.8          3/ 8
HUDSON CANYON    NOT AVBL
KINGS POINT      0400            70 67  190/  6/  9 1014.6
CENTRAL LI SOUND NOT AVBL
EASTERN LI SOUND 0400            65 64   CALM  /  2   N/A
ROBBINS REEF     0400            71     140/  9/ 10 1013.7
$$


>>>>>>>>>>>>>>>>>>>>>>>>>>>> KEY <<<<<<<<<<<<<<<<<<<<<<<<<<<
>                                                          <
>     SKY/WX - SKY CONDITION/PRESENT WEATHER               <
>     TMP    - TEMPERATURE IN FAHRENHEIT                   <
>     DP     - DEWPOINT IN FAHRENHEIT                      <
>     RH     - RELATIVE HUMIDITY IN PERCENT                <
>     WIND   - DIRECTION AND SPEED IN MPH                  <
>     PRES   - MEAN SEA LEVEL PRESSURE IN INCHES OF HG     <
>     WCI    - WIND CHILL INDEX                            <
>     VSB    - VISIBILITY IN MILES                         <
>     HX     - HEAT INDEX                                  <
>     TC     - TEMPERATURE IN CELSIUS                      <
>     VRB    - VARIABLE WIND DIRECTION                     <
>                                                          <
>>>>>>>>>>>>>>>>>>>>>>>>>>>> KEY <<<<<<<<<<<<<<<<<<<<<<<<<<<





USA.gov is the U.S. government's official web portal to all federal, state and local government web resources and services.